Year,Month,Day,Hour,Minute,Value (Times are PST for temperature in C)
2017,01,03,00,00,-2.40
2017,01,03,00,01,-2.40
2017,01,03,00,02,-2.40
2017,01,03,00,03,-2.40
2017,01,03,00,04,-2.40
2017,01,03,00,05,-2.50
2017,01,03,00,06,-2.50
2017,01,03,00,07,-2.50
2017,01,03,00,08,-2.50
2017,01,03,00,09,-2.50
2017,01,03,00,10,-2.50
2017,01,03,00,11,-2.50
2017,01,03,00,12,-2.40
2017,01,03,00,13,-2.40
2017,01,03,00,14,-2.40
2017,01,03,00,15,-2.40
2017,01,03,00,16,-2.40
2017,01,03,00,17,-2.40
2017,01,03,00,18,-2.40
2017,01,03,00,19,-2.40
2017,01,03,00,20,-2.40
2017,01,03,00,21,-2.40
2017,01,03,00,22,-2.40
2017,01,03,00,23,-2.50
2017,01,03,00,24,-2.50
2017,01,03,00,25,-2.50
2017,01,03,00,26,-2.60
2017,01,03,00,27,-2.60
2017,01,03,00,28,-2.60
2017,01,03,00,29,-2.60
2017,01,03,00,30,-2.70
2017,01,03,00,31,-2.70
2017,01,03,00,32,-2.70
2017,01,03,00,33,-2.70
2017,01,03,00,34,-2.70
2017,01,03,00,35,-2.80
2017,01,03,00,36,-2.80
2017,01,03,00,37,-2.80
2017,01,03,00,38,-2.80
2017,01,03,00,39,-2.80
2017,01,03,00,40,-2.80
2017,01,03,00,41,-2.90
2017,01,03,00,42,-2.90
2017,01,03,00,43,-2.90
2017,01,03,00,44,-2.90
2017,01,03,00,45,-2.90
2017,01,03,00,46,-2.90
2017,01,03,00,47,-2.90
2017,01,03,00,48,-3.00
2017,01,03,00,49,-3.00
2017,01,03,00,50,-3.00
2017,01,03,00,51,-3.00
2017,01,03,00,52,-3.10
2017,01,03,00,53,-3.10
2017,01,03,00,54,-3.10
2017,01,03,00,55,-3.10
2017,01,03,00,56,-3.20
2017,01,03,00,57,-3.20
2017,01,03,00,58,-3.20
2017,01,03,00,59,-3.20
2017,01,03,01,00,-3.30
2017,01,03,01,01,-3.30
2017,01,03,01,02,-3.30
2017,01,03,01,03,-3.30
2017,01,03,01,04,-3.30
2017,01,03,01,05,-3.30
2017,01,03,01,06,-3.30
2017,01,03,01,07,-3.40
2017,01,03,01,08,-3.30
2017,01,03,01,09,-3.30
2017,01,03,01,10,-3.30
2017,01,03,01,11,-3.20
2017,01,03,01,12,-3.20
2017,01,03,01,13,-3.20
2017,01,03,01,14,-3.20
2017,01,03,01,15,-3.20
2017,01,03,01,16,-3.20
2017,01,03,01,17,-3.20
2017,01,03,01,18,-3.20
2017,01,03,01,19,-3.20
2017,01,03,01,20,-3.20
2017,01,03,01,21,-3.20
2017,01,03,01,22,-3.20
2017,01,03,01,23,-3.20
2017,01,03,01,24,-3.20
2017,01,03,01,25,-3.20
2017,01,03,01,26,-3.20
2017,01,03,01,27,-3.20
2017,01,03,01,28,-3.20
2017,01,03,01,29,-3.20
2017,01,03,01,30,-3.20
2017,01,03,01,31,-3.30
2017,01,03,01,32,-3.30
2017,01,03,01,33,-3.30
2017,01,03,01,34,-3.30
2017,01,03,01,35,-3.30
2017,01,03,01,36,-3.30
2017,01,03,01,37,-3.30
2017,01,03,01,38,-3.30
2017,01,03,01,39,-3.30
2017,01,03,01,40,-3.30
2017,01,03,01,41,-3.30
2017,01,03,01,42,-3.30
2017,01,03,01,43,-3.30
2017,01,03,01,44,-3.30
2017,01,03,01,45,-3.30
2017,01,03,01,46,-3.30
2017,01,03,01,47,-3.30
2017,01,03,01,48,-3.30
2017,01,03,01,49,-3.40
2017,01,03,01,50,-3.40
2017,01,03,01,51,-3.40
2017,01,03,01,52,-3.40
2017,01,03,01,53,-3.40
2017,01,03,01,54,-3.40
2017,01,03,01,55,-3.40
2017,01,03,01,56,-3.40
2017,01,03,01,57,-3.40
2017,01,03,01,58,-3.40
2017,01,03,01,59,-3.40
2017,01,03,02,00,-3.40
2017,01,03,02,01,-3.40
2017,01,03,02,02,-3.50
2017,01,03,02,03,-3.50
2017,01,03,02,04,-3.50
2017,01,03,02,05,-3.50
2017,01,03,02,06,-3.50
2017,01,03,02,07,-3.50
2017,01,03,02,08,-3.50
2017,01,03,02,09,-3.60
2017,01,03,02,10,-3.60
2017,01,03,02,11,-3.60
2017,01,03,02,12,-3.60
2017,01,03,02,13,-3.60
2017,01,03,02,14,-3.60
2017,01,03,02,15,-3.60
2017,01,03,02,16,-3.60
2017,01,03,02,17,-3.60
2017,01,03,02,18,-3.60
2017,01,03,02,19,-3.60
2017,01,03,02,20,-3.60
2017,01,03,02,21,-3.60
2017,01,03,02,22,-3.60
2017,01,03,02,23,-3.60
2017,01,03,02,24,-3.60
2017,01,03,02,25,-3.60
2017,01,03,02,26,-3.60
2017,01,03,02,27,-3.60
2017,01,03,02,28,-3.60
2017,01,03,02,29,-3.60
2017,01,03,02,30,-3.60
2017,01,03,02,31,-3.60
2017,01,03,02,32,-3.60
2017,01,03,02,33,-3.60
2017,01,03,02,34,-3.60
2017,01,03,02,35,-3.60
2017,01,03,02,36,-3.60
2017,01,03,02,37,-3.60
2017,01,03,02,38,-3.60
2017,01,03,02,39,-3.60
2017,01,03,02,40,-3.60
2017,01,03,02,41,-3.50
2017,01,03,02,42,-3.50
2017,01,03,02,43,-3.40
2017,01,03,02,44,-3.40
2017,01,03,02,45,-3.40
2017,01,03,02,46,-3.40
2017,01,03,02,47,-3.40
2017,01,03,02,48,-3.30
2017,01,03,02,49,-3.30
2017,01,03,02,50,-3.30
2017,01,03,02,51,-3.30
2017,01,03,02,52,-3.30
2017,01,03,02,53,-3.20
2017,01,03,02,54,-3.20
2017,01,03,02,55,-3.20
2017,01,03,02,56,-3.20
2017,01,03,02,57,-3.20
2017,01,03,02,58,-3.20
2017,01,03,02,59,-3.20
2017,01,03,03,00,-3.20
2017,01,03,03,01,-3.20
2017,01,03,03,02,-3.20
2017,01,03,03,03,-3.20
2017,01,03,03,04,-3.20
2017,01,03,03,05,-3.20
2017,01,03,03,06,-3.10
2017,01,03,03,07,-3.10
2017,01,03,03,08,-3.10
2017,01,03,03,09,-3.10
2017,01,03,03,10,-3.10
2017,01,03,03,11,-3.10
2017,01,03,03,12,-3.10
2017,01,03,03,13,-3.10
2017,01,03,03,14,-3.10
2017,01,03,03,15,-3.10
2017,01,03,03,16,-3.10
2017,01,03,03,17,-3.10
2017,01,03,03,18,-3.10
2017,01,03,03,19,-3.10
2017,01,03,03,20,-3.10
2017,01,03,03,21,-3.20
2017,01,03,03,22,-3.20
2017,01,03,03,23,-3.20
2017,01,03,03,24,-3.20
2017,01,03,03,25,-3.30
2017,01,03,03,26,-3.30
2017,01,03,03,27,-3.30
2017,01,03,03,28,-3.30
2017,01,03,03,29,-3.40
2017,01,03,03,30,-3.40
2017,01,03,03,31,-3.40
2017,01,03,03,32,-3.40
2017,01,03,03,33,-3.50
2017,01,03,03,34,-3.50
2017,01,03,03,35,-3.50
2017,01,03,03,36,-3.60
2017,01,03,03,37,-3.60
2017,01,03,03,38,-3.60
2017,01,03,03,39,-3.70
2017,01,03,03,40,-3.70
2017,01,03,03,41,-3.70
2017,01,03,03,42,-3.70
2017,01,03,03,43,-3.70
2017,01,03,03,44,-3.80
2017,01,03,03,45,-3.80
2017,01,03,03,46,-3.80
2017,01,03,03,47,-3.80
2017,01,03,03,48,-3.80
2017,01,03,03,49,-3.90
2017,01,03,03,50,-3.90
2017,01,03,03,51,-3.90
2017,01,03,03,52,-3.90
2017,01,03,03,53,-3.90
2017,01,03,03,54,-3.90
2017,01,03,03,55,-3.90
2017,01,03,03,56,-3.90
2017,01,03,03,57,-3.90
2017,01,03,03,58,-3.90
2017,01,03,03,59,-3.90
2017,01,03,04,00,-3.80
2017,01,03,04,01,-3.80
2017,01,03,04,02,-3.80
2017,01,03,04,03,-3.80
2017,01,03,04,04,-3.80
2017,01,03,04,05,-3.80
2017,01,03,04,06,-3.80
2017,01,03,04,07,-3.70
2017,01,03,04,08,-3.70
2017,01,03,04,09,-3.70
2017,01,03,04,10,-3.80
2017,01,03,04,11,-3.80
2017,01,03,04,12,-3.80
2017,01,03,04,13,-3.80
2017,01,03,04,14,-3.80
2017,01,03,04,15,-3.80
2017,01,03,04,16,-3.80
2017,01,03,04,17,-3.80
2017,01,03,04,18,-3.90
2017,01,03,04,19,-3.90
2017,01,03,04,20,-3.90
2017,01,03,04,21,-3.90
2017,01,03,04,22,-4.00
2017,01,03,04,23,-4.00
2017,01,03,04,24,-4.00
2017,01,03,04,25,-4.00
2017,01,03,04,26,-4.00
2017,01,03,04,27,-4.00
2017,01,03,04,28,-4.00
2017,01,03,04,29,-4.00
2017,01,03,04,30,-4.10
2017,01,03,04,31,-4.10
2017,01,03,04,32,-4.10
2017,01,03,04,33,-4.10
2017,01,03,04,34,-4.20
2017,01,03,04,35,-4.20
2017,01,03,04,36,-4.20
2017,01,03,04,37,-4.20
2017,01,03,04,38,-4.20
2017,01,03,04,39,-4.20
2017,01,03,04,40,-4.20
2017,01,03,04,41,-4.20
2017,01,03,04,42,-4.20
2017,01,03,04,43,-4.20
2017,01,03,04,44,-4.20
2017,01,03,04,45,-4.20
2017,01,03,04,46,-4.20
2017,01,03,04,47,-4.20
2017,01,03,04,48,-4.20
2017,01,03,04,49,-4.20
2017,01,03,04,50,-4.20
2017,01,03,04,51,-4.20
2017,01,03,04,52,-4.20
2017,01,03,04,53,-4.20
2017,01,03,04,54,-4.20
2017,01,03,04,55,-4.20
2017,01,03,04,56,-4.20
2017,01,03,04,57,-4.20
2017,01,03,04,58,-4.20
2017,01,03,04,59,-4.20
2017,01,03,05,00,-4.20
2017,01,03,05,01,-4.20
2017,01,03,05,02,-4.20
2017,01,03,05,03,-4.20
2017,01,03,05,04,-4.20
2017,01,03,05,05,-4.20
2017,01,03,05,06,-4.20
2017,01,03,05,07,-4.20
2017,01,03,05,08,-4.10
2017,01,03,05,09,-4.10
2017,01,03,05,10,-4.10
2017,01,03,05,11,-4.10
2017,01,03,05,12,-4.10
2017,01,03,05,13,-4.10
2017,01,03,05,14,-4.10
2017,01,03,05,15,-4.10
2017,01,03,05,16,-4.10
2017,01,03,05,17,-4.10
2017,01,03,05,18,-4.10
2017,01,03,05,19,-4.10
2017,01,03,05,20,-4.10
2017,01,03,05,21,-4.10
2017,01,03,05,22,-4.10
2017,01,03,05,23,-4.10
2017,01,03,05,24,-4.10
2017,01,03,05,25,-4.10
2017,01,03,05,26,-4.00
2017,01,03,05,27,-4.00
2017,01,03,05,28,-3.90
2017,01,03,05,29,-3.90
2017,01,03,05,30,-3.90
2017,01,03,05,31,-3.80
2017,01,03,05,32,-3.80
2017,01,03,05,33,-3.80
2017,01,03,05,34,-3.80
2017,01,03,05,35,-3.80
2017,01,03,05,36,-3.80
2017,01,03,05,37,-3.80
2017,01,03,05,38,-3.90
2017,01,03,05,39,-3.90
2017,01,03,05,40,-3.90
2017,01,03,05,41,-3.90
2017,01,03,05,42,-3.90
2017,01,03,05,43,-3.90
2017,01,03,05,44,-4.00
2017,01,03,05,45,-4.00
2017,01,03,05,46,-4.00
2017,01,03,05,47,-4.00
2017,01,03,05,48,-4.10
2017,01,03,05,49,-4.10
2017,01,03,05,50,-4.10
2017,01,03,05,51,-4.10
2017,01,03,05,52,-4.10
2017,01,03,05,53,-4.10
2017,01,03,05,54,-4.10
2017,01,03,05,55,-4.10
2017,01,03,05,56,-4.10
2017,01,03,05,57,-4.10
2017,01,03,05,58,-4.10
2017,01,03,05,59,-4.10
2017,01,03,06,00,-4.20
2017,01,03,06,01,-4.20
2017,01,03,06,02,-4.20
2017,01,03,06,03,-4.20
2017,01,03,06,04,-4.20
2017,01,03,06,05,-4.20
2017,01,03,06,06,-4.10
2017,01,03,06,07,-4.10
2017,01,03,06,08,-4.10
2017,01,03,06,09,-4.10
2017,01,03,06,10,-4.10
2017,01,03,06,11,-4.10
2017,01,03,06,12,-4.00
2017,01,03,06,13,-4.00
2017,01,03,06,14,-4.00
2017,01,03,06,15,-3.90
2017,01,03,06,16,-3.90
2017,01,03,06,17,-3.80
2017,01,03,06,18,-3.80
2017,01,03,06,19,-3.80
2017,01,03,06,20,-3.80
2017,01,03,06,21,-3.70
2017,01,03,06,22,-3.70
2017,01,03,06,23,-3.70
2017,01,03,06,24,-3.70
2017,01,03,06,25,-3.70
2017,01,03,06,26,-3.70
2017,01,03,06,27,-3.70
2017,01,03,06,28,-3.70
2017,01,03,06,29,-3.70
2017,01,03,06,30,-3.70
2017,01,03,06,31,-3.70
2017,01,03,06,32,-3.70
2017,01,03,06,33,-3.70
2017,01,03,06,34,-3.70
2017,01,03,06,35,-3.70
2017,01,03,06,36,-3.70
2017,01,03,06,37,-3.80
2017,01,03,06,38,-3.80
2017,01,03,06,39,-3.80
2017,01,03,06,40,-3.80
2017,01,03,06,41,-3.80
2017,01,03,06,42,-3.90
2017,01,03,06,43,-3.90
2017,01,03,06,44,-3.90
2017,01,03,06,45,-3.90
2017,01,03,06,46,-3.90
2017,01,03,06,47,-3.90
2017,01,03,06,48,-3.90
2017,01,03,06,49,-4.00
2017,01,03,06,50,-4.00
2017,01,03,06,51,-4.00
2017,01,03,06,52,-4.00
2017,01,03,06,53,-4.00
2017,01,03,06,54,-4.00
2017,01,03,06,55,-3.90
2017,01,03,06,56,-3.90
2017,01,03,06,57,-3.90
2017,01,03,06,58,-3.90
2017,01,03,06,59,-3.90
2017,01,03,07,00,-3.90
2017,01,03,07,01,-3.90
2017,01,03,07,02,-3.90
2017,01,03,07,03,-3.90
2017,01,03,07,04,-4.00
2017,01,03,07,05,-4.00
2017,01,03,07,06,-4.00
2017,01,03,07,07,-4.10
2017,01,03,07,08,-4.10
2017,01,03,07,09,-4.10
2017,01,03,07,10,-4.10
2017,01,03,07,11,-4.10
2017,01,03,07,12,-4.20
2017,01,03,07,13,-4.20
2017,01,03,07,14,-4.20
2017,01,03,07,15,-4.20
2017,01,03,07,16,-4.30
2017,01,03,07,17,-4.30
2017,01,03,07,18,-4.30
2017,01,03,07,19,-4.30
2017,01,03,07,20,-4.40
2017,01,03,07,21,-4.40
2017,01,03,07,22,-4.40
2017,01,03,07,23,-4.50
2017,01,03,07,24,-4.50
2017,01,03,07,25,-4.50
2017,01,03,07,26,-4.50
2017,01,03,07,27,-4.60
2017,01,03,07,28,-4.60
2017,01,03,07,29,-4.60
2017,01,03,07,30,-4.60
2017,01,03,07,31,-4.70
2017,01,03,07,32,-4.70
2017,01,03,07,33,-4.70
2017,01,03,07,34,-4.70
2017,01,03,07,35,-4.70
2017,01,03,07,36,-4.70
2017,01,03,07,37,-4.70
2017,01,03,07,38,-4.70
2017,01,03,07,39,-4.80
2017,01,03,07,40,-4.80
2017,01,03,07,41,-4.80
2017,01,03,07,42,-4.80
2017,01,03,07,43,-4.80
2017,01,03,07,44,-4.80
2017,01,03,07,45,-4.80
2017,01,03,07,46,-4.80
2017,01,03,07,47,-4.80
2017,01,03,07,48,-4.80
2017,01,03,07,49,-4.80
2017,01,03,07,50,-4.80
2017,01,03,07,51,-4.80
2017,01,03,07,52,-4.90
2017,01,03,07,53,-4.90
2017,01,03,07,54,-4.90
2017,01,03,07,55,-4.90
2017,01,03,07,56,-4.90
2017,01,03,07,57,-4.90
2017,01,03,07,58,-4.90
2017,01,03,07,59,-4.90
2017,01,03,08,00,-4.90
2017,01,03,08,01,-4.90
2017,01,03,08,02,-4.90
2017,01,03,08,03,-4.90
2017,01,03,08,04,-4.90
2017,01,03,08,05,-4.90
2017,01,03,08,06,-4.90
2017,01,03,08,07,-4.90
2017,01,03,08,08,-4.90
2017,01,03,08,09,-4.90
2017,01,03,08,10,-4.90
2017,01,03,08,11,-4.90
2017,01,03,08,12,-5.00
2017,01,03,08,13,-5.00
2017,01,03,08,14,-5.00
2017,01,03,08,15,-5.00
2017,01,03,08,16,-5.00
2017,01,03,08,17,-5.00
2017,01,03,08,18,-5.00
2017,01,03,08,19,-5.00
2017,01,03,08,20,-4.90
2017,01,03,08,21,-4.90
2017,01,03,08,22,-4.90
2017,01,03,08,23,-4.90
2017,01,03,08,24,-4.90
2017,01,03,08,25,-4.90
2017,01,03,08,26,-4.90
2017,01,03,08,27,-4.90
2017,01,03,08,28,-4.90
2017,01,03,08,29,-4.90
2017,01,03,08,30,-4.90
2017,01,03,08,31,-4.90
2017,01,03,08,32,-4.90
2017,01,03,08,33,-4.90
2017,01,03,08,34,-4.90
2017,01,03,08,35,-4.90
2017,01,03,08,36,-4.90
2017,01,03,08,37,-4.90
2017,01,03,08,38,-4.90
2017,01,03,08,39,-4.80
2017,01,03,08,40,-4.80
2017,01,03,08,41,-4.70
2017,01,03,08,42,-4.70
2017,01,03,08,43,-4.70
2017,01,03,08,44,-4.60
2017,01,03,08,45,-4.60
2017,01,03,08,46,-4.50
2017,01,03,08,47,-4.50
2017,01,03,08,48,-4.50
2017,01,03,08,49,-4.50
2017,01,03,08,50,-4.40
2017,01,03,08,51,-4.40
2017,01,03,08,52,-4.40
2017,01,03,08,53,-4.40
2017,01,03,08,54,-4.30
2017,01,03,08,55,-4.30
2017,01,03,08,56,-4.30
2017,01,03,08,57,-4.30
2017,01,03,08,58,-4.30
2017,01,03,08,59,-4.30
2017,01,03,09,00,-4.20
2017,01,03,09,01,-4.20
2017,01,03,09,02,-4.20
2017,01,03,09,03,-4.20
2017,01,03,09,04,-4.20
2017,01,03,09,05,-4.10
2017,01,03,09,06,-4.10
2017,01,03,09,07,-4.10
2017,01,03,09,08,-4.10
2017,01,03,09,09,-4.10
2017,01,03,09,10,-4.00
2017,01,03,09,11,-4.00
2017,01,03,09,12,-4.00
2017,01,03,09,13,-4.00
2017,01,03,09,14,-3.90
2017,01,03,09,15,-3.90
2017,01,03,09,16,-3.90
2017,01,03,09,17,-3.90
2017,01,03,09,18,-3.90
2017,01,03,09,19,-3.90
2017,01,03,09,20,-3.90
2017,01,03,09,21,-3.90
2017,01,03,09,22,-3.90
2017,01,03,09,23,-3.90
2017,01,03,09,24,-3.90
2017,01,03,09,25,-3.90
2017,01,03,09,26,-3.90
2017,01,03,09,27,-3.90
2017,01,03,09,28,-4.00
2017,01,03,09,29,-4.00
2017,01,03,09,30,-4.00
2017,01,03,09,31,-4.00
2017,01,03,09,32,-4.00
2017,01,03,09,33,-4.00
2017,01,03,09,34,-4.00
2017,01,03,09,35,-3.90
2017,01,03,09,36,-3.90
2017,01,03,09,37,-3.90
2017,01,03,09,38,-3.80
2017,01,03,09,39,-3.80
2017,01,03,09,40,-3.70
2017,01,03,09,41,-3.70
2017,01,03,09,42,-3.70
2017,01,03,09,43,-3.70
2017,01,03,09,44,-3.60
2017,01,03,09,45,-3.60
2017,01,03,09,46,-3.60
2017,01,03,09,47,-3.50
2017,01,03,09,48,-3.50
2017,01,03,09,49,-3.40
2017,01,03,09,50,-3.40
2017,01,03,09,51,-3.40
2017,01,03,09,52,-3.40
2017,01,03,09,53,-3.30
2017,01,03,09,54,-3.30
2017,01,03,09,55,-3.30
2017,01,03,09,56,-3.20
2017,01,03,09,57,-3.20
2017,01,03,09,58,-3.20
2017,01,03,09,59,-3.10
2017,01,03,10,00,-3.10
2017,01,03,10,01,-3.10
2017,01,03,10,02,-3.00
2017,01,03,10,03,-3.00
2017,01,03,10,04,-2.90
2017,01,03,10,05,-2.90
2017,01,03,10,06,-2.90
2017,01,03,10,07,-2.90
2017,01,03,10,08,-2.80
2017,01,03,10,09,-2.80
2017,01,03,10,10,-2.80
2017,01,03,10,11,-2.80
2017,01,03,10,12,-2.80
2017,01,03,10,13,-2.80
2017,01,03,10,14,-2.80
2017,01,03,10,15,-2.80
2017,01,03,10,16,-2.80
2017,01,03,10,17,-2.80
2017,01,03,10,18,-2.80
2017,01,03,10,19,-2.80
2017,01,03,10,20,-2.70
2017,01,03,10,21,-2.70
2017,01,03,10,22,-2.70
2017,01,03,10,23,-2.70
2017,01,03,10,24,-2.70
2017,01,03,10,25,-2.70
2017,01,03,10,26,-2.70
2017,01,03,10,27,-2.60
2017,01,03,10,28,-2.60
2017,01,03,10,29,-2.50
2017,01,03,10,30,-2.40
2017,01,03,10,31,-2.40
2017,01,03,10,32,-2.30
2017,01,03,10,33,-2.30
2017,01,03,10,34,-2.20
2017,01,03,10,35,-2.10
2017,01,03,10,36,-2.10
2017,01,03,10,37,-2.10
2017,01,03,10,38,-2.00
2017,01,03,10,39,-1.90
2017,01,03,10,40,-1.90
2017,01,03,10,41,-1.80
2017,01,03,10,42,-1.80
2017,01,03,10,43,-1.70
2017,01,03,10,44,-1.70
2017,01,03,10,45,-1.60
2017,01,03,10,46,-1.50
2017,01,03,10,47,-1.50
2017,01,03,10,48,-1.40
2017,01,03,10,49,-1.40
2017,01,03,10,50,-1.30
2017,01,03,10,51,-1.30
2017,01,03,10,52,-1.20
2017,01,03,10,53,-1.10
2017,01,03,10,54,-1.10
2017,01,03,10,55,-1.00
2017,01,03,10,56,-1.00
2017,01,03,10,57,-1.00
2017,01,03,10,58,-1.00
2017,01,03,10,59,-1.00
2017,01,03,11,00,-1.00
2017,01,03,11,01,-0.90
2017,01,03,11,02,-0.90
2017,01,03,11,03,-0.90
2017,01,03,11,04,-0.80
2017,01,03,11,05,-0.80
2017,01,03,11,06,-0.80
2017,01,03,11,07,-0.80
2017,01,03,11,08,-0.80
2017,01,03,11,09,-0.80
2017,01,03,11,10,-0.80
2017,01,03,11,11,-0.80
2017,01,03,11,12,-0.80
2017,01,03,11,13,-0.80
2017,01,03,11,14,-0.80
2017,01,03,11,15,-0.80
2017,01,03,11,16,-0.80
2017,01,03,11,17,-0.80
2017,01,03,11,18,-0.80
2017,01,03,11,19,-0.80
2017,01,03,11,20,-0.80
2017,01,03,11,21,-0.80
2017,01,03,11,22,-0.80
2017,01,03,11,23,-0.80
2017,01,03,11,24,-0.80
2017,01,03,11,25,-0.80
2017,01,03,11,26,-0.80
2017,01,03,11,27,-0.80
2017,01,03,11,28,-0.80
2017,01,03,11,29,-0.80
2017,01,03,11,30,-0.80
2017,01,03,11,31,-0.80
2017,01,03,11,32,-0.80
2017,01,03,11,33,-0.80
2017,01,03,11,34,-0.80
2017,01,03,11,35,-0.80
2017,01,03,11,36,-0.70
2017,01,03,11,37,-0.70
2017,01,03,11,38,-0.70
2017,01,03,11,39,-0.70
2017,01,03,11,40,-0.70
2017,01,03,11,41,-0.70
2017,01,03,11,42,-0.60
2017,01,03,11,43,-0.60
2017,01,03,11,44,-0.60
2017,01,03,11,45,-0.60
2017,01,03,11,46,-0.60
2017,01,03,11,47,-0.60
2017,01,03,11,48,-0.60
2017,01,03,11,49,-0.60
2017,01,03,11,50,-0.60
2017,01,03,11,51,-0.60
2017,01,03,11,52,-0.50
2017,01,03,11,53,-0.50
2017,01,03,11,54,-0.50
2017,01,03,11,55,-0.40
2017,01,03,11,56,-0.40
2017,01,03,11,57,-0.40
2017,01,03,11,58,-0.40
2017,01,03,11,59,-0.40
2017,01,03,12,00,-0.40
2017,01,03,12,01,-0.40
2017,01,03,12,02,-0.30
2017,01,03,12,03,-0.30
2017,01,03,12,04,-0.30
2017,01,03,12,05,-0.30
2017,01,03,12,06,-0.20
2017,01,03,12,07,-0.20
2017,01,03,12,08,-0.10
2017,01,03,12,09,-0.10
2017,01,03,12,10,-0.10
2017,01,03,12,11,-0.10
2017,01,03,12,12,-0.10
2017,01,03,12,13,-0.10
2017,01,03,12,14,-0.10
2017,01,03,12,15,0.00
2017,01,03,12,16,0.00
2017,01,03,12,17,0.00
2017,01,03,12,18,0.00
2017,01,03,12,19,-0.10
2017,01,03,12,20,-0.10
2017,01,03,12,21,-0.10
2017,01,03,12,22,-0.10
2017,01,03,12,23,-0.10
2017,01,03,12,24,-0.10
2017,01,03,12,25,-0.10
2017,01,03,12,26,-0.10
2017,01,03,12,27,-0.10
2017,01,03,12,28,-0.10
2017,01,03,12,29,-0.10
2017,01,03,12,30,-0.10
2017,01,03,12,31,-0.10
2017,01,03,12,32,-0.10
2017,01,03,12,33,-0.10
2017,01,03,12,34,-0.10
2017,01,03,12,35,-0.10
2017,01,03,12,36,-0.10
2017,01,03,12,37,-0.10
2017,01,03,12,38,-0.10
2017,01,03,12,39,-0.10
2017,01,03,12,40,-0.10
2017,01,03,12,41,-0.10
2017,01,03,12,42,-0.10
2017,01,03,12,43,-0.10
2017,01,03,12,44,-0.10
2017,01,03,12,45,-0.10
2017,01,03,12,46,-0.10
2017,01,03,12,47,0.00
2017,01,03,12,48,0.00
2017,01,03,12,49,0.00
2017,01,03,12,50,0.00
2017,01,03,12,51,0.00
2017,01,03,12,52,0.00
2017,01,03,12,53,0.00
2017,01,03,12,54,0.00
2017,01,03,12,55,0.10
2017,01,03,12,56,0.10
2017,01,03,12,57,0.10
2017,01,03,12,58,0.10
2017,01,03,12,59,0.10
2017,01,03,13,00,0.10
2017,01,03,13,01,0.20
2017,01,03,13,02,0.10
2017,01,03,13,03,0.10
2017,01,03,13,04,0.10
2017,01,03,13,05,0.10
2017,01,03,13,06,0.20
2017,01,03,13,07,0.10
2017,01,03,13,08,0.10
2017,01,03,13,09,0.20
2017,01,03,13,10,0.10
2017,01,03,13,11,0.10
2017,01,03,13,12,0.10
2017,01,03,13,13,0.10
2017,01,03,13,14,0.10
2017,01,03,13,15,0.10
2017,01,03,13,16,0.20
2017,01,03,13,17,0.20
2017,01,03,13,18,0.20
2017,01,03,13,19,0.20
2017,01,03,13,20,0.20
2017,01,03,13,21,0.20
2017,01,03,13,22,0.30
2017,01,03,13,23,0.30
2017,01,03,13,24,0.30
2017,01,03,13,25,0.30
2017,01,03,13,26,0.30
2017,01,03,13,27,0.30
2017,01,03,13,28,0.40
2017,01,03,13,29,0.30
2017,01,03,13,30,0.30
2017,01,03,13,31,0.30
2017,01,03,13,32,0.30
2017,01,03,13,33,0.30
2017,01,03,13,34,0.30
2017,01,03,13,35,0.30
2017,01,03,13,36,0.30
2017,01,03,13,37,0.30
2017,01,03,13,38,0.30
2017,01,03,13,39,0.30
2017,01,03,13,40,0.30
2017,01,03,13,41,0.30
2017,01,03,13,42,0.30
2017,01,03,13,43,0.30
2017,01,03,13,44,0.40
2017,01,03,13,45,0.40
2017,01,03,13,46,0.40
2017,01,03,13,47,0.40
2017,01,03,13,48,0.40
2017,01,03,13,49,0.40
2017,01,03,13,50,0.40
2017,01,03,13,51,0.40
2017,01,03,13,52,0.40
2017,01,03,13,53,0.40
2017,01,03,13,54,0.30
2017,01,03,13,55,0.30
2017,01,03,13,56,0.30
2017,01,03,13,57,0.30
2017,01,03,13,58,0.30
2017,01,03,13,59,0.30
2017,01,03,14,00,0.30
2017,01,03,14,01,0.20
2017,01,03,14,02,0.20
2017,01,03,14,03,0.20
2017,01,03,14,04,0.20
2017,01,03,14,05,0.20
2017,01,03,14,06,0.20
2017,01,03,14,07,0.20
2017,01,03,14,08,0.20
2017,01,03,14,09,0.20
2017,01,03,14,10,0.20
2017,01,03,14,11,0.20
2017,01,03,14,12,0.20
2017,01,03,14,13,0.20
2017,01,03,14,14,0.10
2017,01,03,14,15,0.10
2017,01,03,14,16,0.10
2017,01,03,14,17,0.10
2017,01,03,14,18,0.10
2017,01,03,14,19,0.10
2017,01,03,14,20,0.10
2017,01,03,14,21,0.10
2017,01,03,14,22,0.10
2017,01,03,14,23,0.10
2017,01,03,14,24,0.10
2017,01,03,14,25,0.10
2017,01,03,14,26,0.10
2017,01,03,14,27,0.10
2017,01,03,14,28,0.10
2017,01,03,14,29,0.10
2017,01,03,14,30,0.20
2017,01,03,14,31,0.20
2017,01,03,14,32,0.20
2017,01,03,14,33,0.20
2017,01,03,14,34,0.20
2017,01,03,14,35,0.20
2017,01,03,14,36,0.20
2017,01,03,14,37,0.20
2017,01,03,14,38,0.20
2017,01,03,14,39,0.20
2017,01,03,14,40,0.20
2017,01,03,14,41,0.10
2017,01,03,14,42,0.10
2017,01,03,14,43,0.10
2017,01,03,14,44,0.10
2017,01,03,14,45,0.10
2017,01,03,14,46,0.10
2017,01,03,14,47,0.00
2017,01,03,14,48,0.00
2017,01,03,14,49,0.00
2017,01,03,14,50,0.00
2017,01,03,14,51,-0.10
2017,01,03,14,52,-0.10
2017,01,03,14,53,-0.10
2017,01,03,14,54,-0.10
2017,01,03,14,55,-0.10
2017,01,03,14,56,-0.10
2017,01,03,14,57,0.00
2017,01,03,14,58,0.00
2017,01,03,14,59,0.00
2017,01,03,15,00,0.00
2017,01,03,15,01,0.00
2017,01,03,15,02,0.00
2017,01,03,15,03,0.00
2017,01,03,15,04,0.00
2017,01,03,15,05,0.00
2017,01,03,15,06,0.00
2017,01,03,15,07,0.10
2017,01,03,15,08,0.10
2017,01,03,15,09,0.10
2017,01,03,15,10,0.10
2017,01,03,15,11,0.10
2017,01,03,15,12,0.10
2017,01,03,15,13,0.10
2017,01,03,15,14,0.10
2017,01,03,15,15,0.00
2017,01,03,15,16,0.00
2017,01,03,15,17,0.00
2017,01,03,15,18,0.00
2017,01,03,15,19,0.00
2017,01,03,15,20,-0.10
2017,01,03,15,21,-0.10
2017,01,03,15,22,-0.10
2017,01,03,15,23,-0.10
2017,01,03,15,24,-0.10
2017,01,03,15,25,-0.10
2017,01,03,15,26,-0.10
2017,01,03,15,27,-0.10
2017,01,03,15,28,-0.10
2017,01,03,15,29,-0.20
2017,01,03,15,30,-0.20
2017,01,03,15,31,-0.20
2017,01,03,15,32,-0.20
2017,01,03,15,33,-0.20
2017,01,03,15,34,-0.20
2017,01,03,15,35,-0.20
2017,01,03,15,36,-0.20
2017,01,03,15,37,-0.20
2017,01,03,15,38,-0.20
2017,01,03,15,39,-0.20
2017,01,03,15,40,-0.20
2017,01,03,15,41,-0.20
2017,01,03,15,42,-0.20
2017,01,03,15,43,-0.20
2017,01,03,15,44,-0.20
2017,01,03,15,45,-0.20
2017,01,03,15,46,-0.20
2017,01,03,15,47,-0.20
2017,01,03,15,48,-0.20
2017,01,03,15,49,-0.10
2017,01,03,15,50,-0.10
2017,01,03,15,51,-0.10
2017,01,03,15,52,-0.10
2017,01,03,15,53,-0.10
2017,01,03,15,54,-0.10
2017,01,03,15,55,-0.10
2017,01,03,15,56,0.00
2017,01,03,15,57,0.00
2017,01,03,15,58,0.00
2017,01,03,15,59,0.00
2017,01,03,16,00,0.00
2017,01,03,16,01,-0.10
2017,01,03,16,02,-0.10
2017,01,03,16,03,-0.10
2017,01,03,16,04,-0.10
2017,01,03,16,05,-0.20
2017,01,03,16,06,-0.20
2017,01,03,16,07,-0.20
2017,01,03,16,08,-0.20
2017,01,03,16,09,-0.30
2017,01,03,16,10,-0.30
2017,01,03,16,11,-0.30
2017,01,03,16,12,-0.30
2017,01,03,16,13,-0.40
2017,01,03,16,14,-0.40
2017,01,03,16,15,-0.40
2017,01,03,16,16,-0.40
2017,01,03,16,17,-0.50
2017,01,03,16,18,-0.60
2017,01,03,16,19,-0.60
2017,01,03,16,20,-0.60
2017,01,03,16,21,-0.70
2017,01,03,16,22,-0.70
2017,01,03,16,23,-0.70
2017,01,03,16,24,-0.80
2017,01,03,16,25,-0.80
2017,01,03,16,26,-0.80
2017,01,03,16,27,-0.90
2017,01,03,16,28,-0.90
2017,01,03,16,29,-0.90
2017,01,03,16,30,-1.00
2017,01,03,16,31,-1.00
2017,01,03,16,32,-1.00
2017,01,03,16,33,-1.10
2017,01,03,16,34,-1.10
2017,01,03,16,35,-1.10
2017,01,03,16,36,-1.20
2017,01,03,16,37,-1.20
2017,01,03,16,38,-1.20
2017,01,03,16,39,-1.20
2017,01,03,16,40,-1.30
2017,01,03,16,41,-1.30
2017,01,03,16,42,-1.30
2017,01,03,16,43,-1.30
2017,01,03,16,44,-1.40
2017,01,03,16,45,-1.40
2017,01,03,16,46,-1.40
2017,01,03,16,47,-1.40
2017,01,03,16,48,-1.50
2017,01,03,16,49,-1.50
2017,01,03,16,50,-1.50
2017,01,03,16,51,-1.60
2017,01,03,16,52,-1.60
2017,01,03,16,53,-1.60
2017,01,03,16,54,-1.60
2017,01,03,16,55,-1.70
2017,01,03,16,56,-1.70
2017,01,03,16,57,-1.70
2017,01,03,16,58,-1.70
2017,01,03,16,59,-1.80
2017,01,03,17,00,-1.80
2017,01,03,17,01,-1.80
2017,01,03,17,02,-1.80
2017,01,03,17,03,-1.90
2017,01,03,17,04,-1.90
2017,01,03,17,05,-1.90
2017,01,03,17,06,-1.90
2017,01,03,17,07,-1.90
2017,01,03,17,08,-1.90
2017,01,03,17,09,-1.90
2017,01,03,17,10,-1.90
2017,01,03,17,11,-1.90
2017,01,03,17,12,-1.90
2017,01,03,17,13,-2.00
2017,01,03,17,14,-2.00
2017,01,03,17,15,-2.00
2017,01,03,17,16,-2.00
2017,01,03,17,17,-2.00
2017,01,03,17,18,-1.90
2017,01,03,17,19,-1.90
2017,01,03,17,20,-1.90
2017,01,03,17,21,-1.90
2017,01,03,17,22,-1.90
2017,01,03,17,23,-1.90
2017,01,03,17,24,-1.90
2017,01,03,17,25,-1.90
2017,01,03,17,26,-2.00